Wind_Speed
7 7 6 6 5 5 6 6 6 5 6 6 5 5 5 7 7 7 7 7 7 7 8 8 9 10 10 10 10 10 9 8 8 8 7 7 7 7 5 5 5 5 5
7 6 6 6 5 5 6 6 6 6 7 6 6 6 7 7 7 7 7 8 7 8 8 8 9 9 10 10 10 9 8 8 8 8 7 8 7 7 6 6 6 5 5
7 7 6 6 6 6 7 7 7 7 7 6 6 7 8 8 7 8 8 8 8 8 9 9 9 9 9 8 8 8 8 8 8 8 8 8 7 7 6 6 6 5 5
7 7 7 6 6 6 7 7 7 7 7 7 7 7 7 8 8 8 8 8 8 9 9 8 9 9 8 8 8 8 8 7 7 8 7 7 7 7 6 6 5 5 4
8 7 7 7 6 6 7 7 7 7 7 7 6 7 7 8 8 8 8 8 8 9 9 9 9 9 8 8 8 8 7 7 6 7 6 6 7 6 6 6 5 5 4
8 8 7 7 7 7 8 9 8 8 8 8 7 7 7 8 8 8 8 8 8 8 8 9 10 9 8 8 7 7 7 6 5 6 6 6 6 6 6 6 5 4 5
9 9 8 8 9 9 9 9 9 8 8 8 7 7 7 7 7 7 7 7 7 8 7 8 8 8 8 8 7 7 6 6 5 5 5 6 6 6 6 5 5 4 5
11 10 9 10 10 9 9 9 9 9 8 8 7 7 7 7 7 8 7 7 7 6 6 7 8 8 8 7 6 5 5 5 4 5 6 6 5 6 6 5 4 4 4
12 12 11 11 10 10 10 10 9 9 9 8 8 8 8 7 8 8 8 7 7 6 6 6 7 8 7 7 6 5 5 4 3 4 5 5 5 5 5 4 4 4 4
13 13 13 12 11 10 11 10 9 9 8 8 8 8 8 8 8 8 8 8 6 6 6 6 7 7 7 6 5 5 4 3 3 4 4 4 4 4 4 4 4 4 4
14 13 13 12 11 10 10 10 9 9 8 8 8 8 8 8 8 8 9 8 7 6 6 5 6 6 5 5 4 4 4 4 4 4 3 3 4 4 4 4 5 4 4
14 14 13 13 12 11 10 9 9 8 9 8 8 8 8 8 8 8 8 7 7 6 6 6 5 5 4 4 4 4 4 4 4 4 3 3 3 3 4 4 5 4 4
14 14 13 13 12 11 10 9 8 9 9 8 8 8 8 8 8 8 7 7 6 6 6 6 5 4 4 4 4 5 4 4 4 4 3 3 4 4 4 4 5 5 5
14 14 13 12 12 11 11 10 9 8 8 8 8 8 8 8 7 7 7 6 6 6 6 5 5 4 4 4 4 4 4 3 3 3 4 4 4 5 5 5 5 5 5
14 14 13 12 11 10 10 10 9 8 8 8 8 7 7 7 6 6 6 5 5 5 4 4 4 4 3 3 2 2 2 2 2 4 4 4 5 6 6 5 6 6 6
14 13 13 12 11 10 10 9 9 9 9 8 8 7 8 7 6 6 5 4 3 3 3 3 3 3 3 2 1 1 1 1 2 3 3 4 5 6 8 7 7 6 7
13 12 12 12 12 11 10 10 9 9 9 8 7 7 8 7 6 6 5 4 3 2 2 2 3 3 2 1 1 1 0 1 2 3 4 5 6 6 8 8 8 8 8
13 12 12 12 12 12 11 11 10 9 9 9 8 7 7 7 6 4 4 2 1 1 1 1 1 1 1 1 1 1 1 1 2 3 5 6 7 7 7 7 8 8 8
13 12 12 11 11 12 12 11 10 10 10 9 9 8 7 6 5 5 4 2 2 2 2 2 2 2 2 2 2 2 2 2 3 4 5 5 6 7 8 8 9 9 9
13 12 11 11 10 11 11 10 10 10 10 9 8 7 7 6 5 4 3 3 2 2 2 1 1 2 2 2 2 3 4 4 5 6 6 7 7 7 8 8 9 10 10
12 12 11 10 10 10 10 9 9 9 9 8 7 6 6 6 5 5 4 3 3 3 2 2 2 3 3 3 3 3 4 5 6 6 7 7 7 8 9 9 10 10 10
12 11 11 11 11 10 9 9 9 8 8 8 8 6 6 5 5 5 5 4 4 4 4 3 4 4 5 5 5 5 5 5 6 7 7 8 8 9 9 10 11 11 12
11 11 10 10 11 10 9 9 8 8 7 7 7 7 6 6 5 5 5 5 5 5 5 5 5 5 5 5 6 6 7 7 8 7 7 8 9 10 10 10 11 12 13
9 9 10 10 10 10 9 9 8 7 7 7 7 7 6 7 6 5 5 6 6 6 6 6 6 6 6 7 7 8 8 8 9 8 9 9 10 10 10 11 12 13 13
8 9 9 9 9 10 9 9 8 7 6 6 7 6 6 6 6 6 6 6 6 6 6 6 6 7 7 8 8 8 8 9 9 10 10 11 11 12 12 12 13 14 14
8 8 8 8 8 9 9 9 8 8 7 7 7 7 6 6 6 6 6 5 6 6 6 7 7 7 8 9 9 9 9 10 10 11 11 11 12 13 13 14 15 15 14
Wind_Direction
50 53 53 61 63 79 91 96 95 94 103 105 107 113 118 121 122 125 130 134 129 126 126 129 133 134 138 143 148 155 157 157 163 165 168 168 167 163 159 160 162 165 171
55 64 69 74 79 83 89 93 95 103 106 106 108 112 115 119 126 129 131 136 135 134 133 134 137 136 140 145 147 149 153 157 164 167 167 164 162 166 165 163 164 168 175
57 63 72 80 81 82 91 96 98 101 106 106 110 114 115 118 125 132 134 137 137 138 139 139 138 137 141 147 149 146 147 159 164 168 168 163 165 169 169 168 169 169 171
60 61 71 78 86 89 91 95 99 102 102 103 109 116 119 119 122 128 133 135 139 138 140 143 142 139 143 146 149 148 147 157 163 168 173 174 173 171 172 173 172 170 175
62 63 73 78 84 90 88 89 95 96 98 102 111 115 118 126 128 131 132 134 140 139 141 146 145 142 144 145 145 147 147 156 162 168 174 183 179 174 175 178 174 178 188
61 66 75 86 85 89 88 86 92 95 96 100 109 114 115 128 132 133 133 133 135 138 142 147 149 147 144 151 148 152 153 163 170 174 174 183 180 178 176 177 179 184 193
66 71 78 87 90 90 89 90 90 89 90 94 101 110 114 126 132 141 139 133 136 138 145 149 154 153 148 151 152 154 156 162 163 174 180 180 183 183 181 176 180 188 197
67 72 80 86 90 91 92 89 87 86 86 90 96 104 111 118 126 134 144 139 137 142 144 151 156 158 152 152 150 153 157 165 175 179 187 179 176 180 183 182 185 189 194
65 71 76 79 85 89 92 90 89 85 87 92 95 101 105 115 122 124 132 140 140 144 147 145 153 155 153 155 155 154 160 175 189 193 187 186 179 175 177 183 184 185 182
65 70 72 72 81 86 88 90 93 92 93 94 97 103 105 109 124 125 127 137 141 142 143 147 150 152 159 159 156 161 167 173 188 190 194 194 192 184 179 183 179 179 177
64 67 71 70 71 76 82 86 94 98 99 98 96 103 105 108 119 128 128 131 138 140 143 147 148 150 154 159 164 167 185 197 196 194 198 195 200 196 186 185 184 189 190
64 65 70 70 70 73 78 83 91 96 100 97 92 96 103 108 115 123 129 134 139 139 141 145 149 147 152 158 166 180 196 199 199 207 207 199 196 197 197 196 198 201 197
65 67 69 69 68 71 77 83 87 91 96 95 92 98 101 108 114 112 121 130 137 138 135 139 148 155 160 163 184 193 194 201 209 215 207 205 208 207 204 201 206 209 213
66 67 70 70 70 74 79 82 86 91 91 89 94 105 105 105 112 118 124 128 128 133 138 137 144 148 154 176 188 199 201 204 214 214 210 215 217 217 220 216 212 213 223
65 66 66 68 69 75 79 75 77 86 89 87 92 98 96 100 106 118 123 127 134 136 139 141 140 135 138 159 186 223 218 212 194 202 215 228 229 229 231 228 231 234 233
65 66 66 66 69 71 73 75 78 82 86 86 87 92 95 97 100 114 115 119 130 130 124 136 146 141 141 158 186 232 223 215 203 210 222 234 241 243 239 238 244 247 248
64 66 66 66 68 70 72 74 74 76 80 85 87 88 89 94 102 106 99 88 86 90 96 123 150 158 150 124 95 86 249 226 228 242 245 244 248 249 248 247 248 252 257
62 65 67 68 68 67 69 70 68 67 72 77 82 87 81 81 83 90 91 84 63 81 122 124 122 80 17 357 348 325 321 273 247 252 258 258 252 248 244 251 251 256 257
63 65 66 66 68 66 65 66 68 69 72 74 75 76 75 75 71 61 57 47 33 42 75 71 64 25 1 338 312 302 306 304 295 280 267 262 258 251 255 254 257 259 258
62 64 65 64 65 62 62 65 68 68 68 70 71 67 65 62 59 49 45 44 37 51 61 66 25 18 11 356 332 306 293 298 304 293 276 268 266 267 266 267 266 265 263
57 62 63 61 59 57 59 63 65 66 64 63 61 60 64 62 55 48 47 47 46 34 31 30 25 18 9 351 335 312 296 295 302 294 281 274 271 274 275 273 269 268 268
54 57 58 55 53 52 54 59 63 63 62 61 60 58 56 55 52 54 48 39 30 18 13 19 6 359 351 343 332 318 311 307 300 299 292 284 277 277 279 277 273 270 270
50 52 54 53 51 50 53 55 60 59 60 58 53 51 49 47 46 47 41 31 25 19 10 6 358 348 343 341 333 326 316 307 302 303 303 289 281 278 275 273 273 274 277
47 46 44 46 47 47 47 45 51 54 55 52 46 47 47 45 40 39 34 29 26 18 8 360 354 343 337 333 327 317 308 305 303 303 300 299 297 292 284 278 276 274 275
46 43 42 41 39 40 37 33 35 40 44 44 39 38 34 32 32 29 24 18 14 4 359 353 346 341 336 328 321 313 306 303 302 301 297 294 294 292 289 288 285 281 277
42 41 40 37 36 35 31 29 30 34 35 35 32 29 27 24 18 14 14 9 4 357 351 348 345 341 336 329 321 315 310 306 305 301 298 297 293 292 289 287 285 283 282
Height
5855 5854 5854 5854 5853 5853 5853 5853 5854 5854 5854 5855 5856 5857 5858 5859 5860 5861 5862 5863 5864 5865 5866 5867 5868 5869 5870 5872 5873 5875 5876 5878 5879 5881 5882 5883 5884 5885 5886 5887 5888 5889 5889
5856 5855 5855 5854 5853 5853 5854 5854 5855 5855 5855 5856 5857 5858 5859 5860 5861 5862 5863 5864 5865 5866 5867 5868 5869 5871 5872 5873 5875 5876 5877 5879 5880 5881 5882 5883 5884 5885 5886 5887 5888 5889 5890
5857 5856 5856 5855 5855 5854 5854 5855 5855 5856 5856 5857 5858 5859 5859 5860 5861 5863 5864 5865 5866 5867 5868 5870 5871 5872 5874 5875 5876 5877 5878 5880 5881 5882 5883 5884 5885 5886 5886 5887 5888 5889 5890
5857 5857 5856 5856 5856 5855 5855 5855 5856 5857 5857 5858 5859 5859 5860 5861 5862 5863 5865 5866 5867 5868 5869 5871 5872 5873 5875 5876 5877 5878 5879 5880 5881 5883 5883 5884 5885 5886 5887 5887 5889 5889 5890
5858 5857 5857 5857 5857 5857 5857 5857 5857 5858 5858 5859 5859 5860 5861 5862 5863 5864 5865 5867 5868 5869 5870 5871 5873 5874 5875 5876 5878 5879 5880 5881 5882 5883 5883 5884 5885 5886 5887 5888 5889 5889 5890
5859 5858 5858 5858 5858 5858 5858 5858 5858 5859 5859 5860 5860 5860 5861 5863 5864 5865 5866 5867 5868 5869 5871 5872 5873 5874 5876 5877 5878 5879 5880 5881 5882 5883 5883 5884 5885 5886 5887 5888 5889 5889 5890
5861 5860 5859 5859 5859 5859 5859 5860 5860 5860 5861 5861 5861 5862 5862 5863 5864 5865 5866 5868 5869 5870 5872 5873 5874 5875 5877 5877 5878 5879 5881 5881 5882 5883 5883 5884 5885 5886 5887 5888 5888 5889 5890
5862 5862 5861 5861 5860 5861 5861 5861 5861 5862 5862 5862 5863 5863 5863 5864 5864 5865 5867 5868 5870 5871 5872 5873 5875 5876 5877 5878 5879 5880 5881 5882 5882 5883 5883 5884 5885 5886 5887 5888 5888 5889 5889
5864 5863 5863 5862 5862 5862 5862 5863 5863 5863 5864 5864 5864 5864 5865 5865 5865 5866 5867 5869 5871 5872 5873 5874 5876 5877 5878 5879 5880 5881 5882 5882 5883 5883 5884 5884 5885 5886 5887 5887 5888 5889 5889
5866 5865 5865 5864 5864 5864 5864 5865 5865 5865 5865 5866 5866 5866 5866 5866 5866 5867 5868 5870 5872 5873 5874 5875 5876 5877 5878 5879 5880 5881 5882 5882 5883 5884 5884 5885 5885 5886 5886 5887 5888 5889 5889
5869 5868 5867 5867 5866 5866 5866 5867 5867 5867 5867 5867 5867 5867 5868 5868 5868 5869 5870 5871 5872 5874 5875 5876 5877 5878 5879 5879 5880 5881 5882 5883 5883 5883 5884 5885 5885 5886 5887 5887 5888 5889 5890
5871 5870 5869 5869 5869 5868 5868 5868 5868 5868 5869 5869 5869 5869 5870 5870 5870 5871 5871 5873 5874 5875 5875 5876 5877 5878 5879 5880 5880 5881 5882 5882 5883 5883 5884 5885 5885 5886 5887 5887 5888 5889 5889
5873 5872 5872 5872 5871 5871 5870 5870 5870 5870 5870 5871 5871 5871 5871 5872 5872 5873 5873 5874 5875 5875 5876 5877 5878 5878 5879 5880 5880 5881 5881 5882 5883 5883 5884 5885 5885 5886 5886 5887 5888 5888 5889
5876 5875 5875 5874 5873 5873 5872 5872 5872 5872 5872 5872 5872 5872 5873 5873 5874 5875 5875 5876 5876 5876 5877 5878 5878 5879 5879 5879 5880 5880 5881 5882 5882 5883 5884 5884 5885 5885 5886 5886 5887 5887 5888
5878 5878 5877 5876 5876 5875 5875 5874 5874 5874 5874 5874 5874 5874 5875 5875 5876 5876 5876 5877 5877 5878 5878 5878 5879 5879 5880 5880 5880 5880 5881 5881 5882 5883 5883 5884 5884 5885 5885 5886 5886 5887 5887
5881 5880 5879 5879 5878 5878 5877 5876 5876 5876 5876 5876 5876 5876 5876 5876 5877 5877 5878 5878 5878 5879 5879 5879 5879 5880 5880 5880 5880 5880 5881 5881 5882 5882 5883 5883 5883 5884 5884 5884 5885 5886 5886
5884 5883 5882 5881 5880 5880 5879 5878 5878 5878 5877 5877 5878 5878 5878 5878 5878 5878 5879 5879 5879 5879 5879 5879 5879 5880 5880 5880 5880 5880 5880 5881 5881 5881 5882 5882 5882 5882 5883 5883 5884 5884 5884
5886 5885 5884 5883 5883 5882 5881 5881 5880 5880 5879 5879 5879 5879 5879 5879 5879 5879 5879 5879 5879 5879 5879 5880 5880 5880 5880 5880 5880 5880 5880 5880 5881 5881 5881 5881 5881 5881 5881 5882 5882 5882 5883
5889 5888 5887 5886 5885 5884 5884 5883 5882 5882 5882 5881 5881 5881 5881 5880 5880 5880 5880 5880 5879 5879 5880 5880 5880 5880 5880 5880 5880 5880 5880 5880 5880 5879 5879 5879 5879 5879 5880 5880 5880 5880 5881
5891 5890 5889 5889 5888 5887 5886 5885 5885 5884 5884 5883 5883 5882 5882 5882 5881 5881 5880 5880 5880 5880 5880 5880 5880 5880 5880 5880 5880 5879 5879 5879 5879 5878 5878 5878 5878 5878 5878 5878 5878 5878 5878
5894 5892 5892 5891 5890 5889 5888 5887 5887 5886 5886 5885 5885 5884 5883 5883 5882 5882 5881 5881 5881 5881 5881 5881 5881 5880 5880 5880 5880 5879 5879 5878 5878 5877 5877 5877 5876 5876 5876 5876 5876 5876 5876
5896 5895 5894 5893 5892 5891 5890 5889 5889 5888 5887 5887 5886 5885 5885 5884 5884 5883 5883 5883 5882 5882 5882 5881 5881 5881 5880 5880 5879 5879 5878 5878 5877 5876 5875 5875 5875 5874 5874 5873 5873 5873 5873
5898 5897 5896 5895 5894 5892 5891 5891 5890 5889 5889 5888 5887 5886 5886 5885 5885 5884 5884 5883 5883 5883 5882 5882 5881 5881 5880 5879 5878 5878 5878 5877 5876 5875 5874 5874 5873 5872 5872 5871 5871 5870 5870
5900 5899 5897 5896 5895 5894 5893 5892 5892 5891 5890 5889 5888 5887 5887 5886 5886 5885 5885 5884 5884 5883 5882 5882 5881 5880 5879 5878 5877 5877 5876 5875 5875 5874 5873 5872 5871 5870 5869 5868 5868 5867 5867
5901 5900 5899 5898 5897 5895 5895 5893 5892 5891 5891 5890 5889 5888 5888 5887 5886 5886 5885 5885 5884 5883 5882 5882 5881 5880 5879 5877 5876 5875 5874 5874 5873 5872 5871 5870 5869 5868 5867 5866 5865 5864 5863
5901 5900 5900 5899 5898 5897 5896 5895 5893 5892 5891 5891 5890 5889 5888 5887 5887 5886 5885 5885 5884 5883 5882 5881 5880 5879 5878 5877 5875 5874 5873 5872 5871 5870 5869 5867 5866 5865 5864 5863 5861 5860 5860